Weather History for KHHW - January, 2013

Change the Weather History Date:

Thursday, January 24, 2013

  Actual Average Record
Temperature  
Mean Temperature 50 °F -  
Max Temperature 57 °F 58 °F 60 °F (2015)
Min Temperature 41 °F 34 °F 14 °F (2014)
Degree Days  
Heating Degree Days 16    
Moisture  
Dew Point 46 °F    
Average Humidity 88    
Maximum Humidity 95    
Minimum Humidity 75    
Precipitation  
Precipitation 0.00 in - - ()
Sea Level Pressure  
Sea Level Pressure 30.15 in    
Wind  
Wind Speed 7 mph (ESE)    
Max Wind Speed 16 mph    
Max Gust Speed 23 mph    
Visibility 7 miles    
Events      
Averages and records for this station are not official NWS values.
T = Trace of Precipitation, MM = Missing Value Source: NWS Daily Summary

Daily Weather History Graph

Daily Weather History Graph

Search for Another Location

Airport or City:

Trip Planner

Search our weather history database for the weather conditions in past years. The results will help you decide how hot, cold, wet, or windy it might be!

Date:

Astronomy

Jan. 24, 2013 Rise Set
Actual Time 7:23 AM CST 5:45 PM CST
Civil Twilight 6:57 AM CST 6:11 PM CST
Nautical Twilight 6:27 AM CST 6:42 PM CST
Astronomical Twilight 5:57 AM CST 7:11 PM CST
Moon 3:49 PM CST (1/24) 5:20 AM CST (1/24)
Length of Visible Light 11h 14m
Length of Day
10h 21m
Waxing Gibbous, 94% of the Moon is Illuminated
Jan 24
Waxing Gibbous
Jan 26
Full
Feb 3
Last Quarter
Feb 10
New
Feb 17
First Quarter

Hourly Weather History & Observations

Time (CST) Temp. Windchill Dew Point Humidity Pressure Visibility Wind Dir Wind Speed Gust Speed Precip Events Conditions
12:15 AM 55.6 °F - 50.0 °F 81% 30.16 in 10.0 mi North - - N/A   Clear
12:35 AM 54.9 °F - 49.6 °F 83% 30.16 in 10.0 mi SSE 3.5 mph - N/A   Clear
12:55 AM 51.6 °F - 48.4 °F 89% 30.17 in 10.0 mi ENE 4.6 mph - N/A   Clear
1:15 AM 51.1 °F - 48.4 °F 90% 30.17 in 10.0 mi East 4.6 mph - N/A   Clear
1:35 AM 50.7 °F - 48.4 °F 92% 30.16 in 10.0 mi ESE 6.9 mph - N/A   Clear
1:55 AM 51.6 °F - 48.4 °F 89% 30.17 in 10.0 mi ESE 5.8 mph - N/A   Clear
2:15 AM 49.5 °F - 47.5 °F 93% 30.17 in 10.0 mi ENE 5.8 mph - N/A   Clear
2:35 AM 49.8 °F - 47.7 °F 92% 30.16 in 10.0 mi East 5.8 mph - N/A   Clear
2:55 AM 50.5 °F - 48.2 °F 92% 30.16 in 10.0 mi ESE 5.8 mph - N/A   Clear
3:15 AM 50.0 °F - 47.5 °F 91% 30.16 in 10.0 mi ESE 4.6 mph - N/A   Clear
3:35 AM 49.1 °F - 46.9 °F 92% 30.15 in 10.0 mi East 5.8 mph - N/A   Clear
3:55 AM 49.3 °F - 47.3 °F 93% 30.15 in 10.0 mi East 5.8 mph - N/A   Clear
4:15 AM 48.7 °F - 46.6 °F 92% 30.15 in 10.0 mi East 5.8 mph - N/A   Clear
4:35 AM 48.2 °F - 46.6 °F 94% 30.16 in 10.0 mi East 5.8 mph - N/A   Clear
4:55 AM 48.7 °F - 46.9 °F 93% 30.15 in 10.0 mi East 5.8 mph - N/A   Clear
5:15 AM 47.5 °F - 45.9 °F 94% 30.15 in 7.0 mi East 4.6 mph - N/A   Clear
5:35 AM 48.4 °F - 46.9 °F 95% 30.15 in 7.0 mi East 5.8 mph - N/A   Clear
5:55 AM 47.7 °F - 46.0 °F 94% 30.16 in 7.0 mi ESE 5.8 mph - N/A   Clear
6:15 AM 48.2 °F - 46.8 °F 95% 30.16 in 7.0 mi East 4.6 mph - N/A   Clear
6:35 AM 47.8 °F - 46.4 °F 95% 30.16 in 7.0 mi East 4.6 mph - N/A   Clear
6:55 AM 47.7 °F - 46.4 °F 95% 30.17 in 5.0 mi East 4.6 mph - N/A   Mostly Cloudy
7:15 AM 48.6 °F - 47.3 °F 95% 30.18 in 5.0 mi East 3.5 mph - N/A   Overcast
7:35 AM 49.1 °F - 47.8 °F 95% 30.18 in 5.0 mi ESE 3.5 mph - N/A   Overcast
7:55 AM 50.0 °F - 48.4 °F 94% 30.18 in 5.0 mi ESE 4.6 mph - N/A   Overcast
8:15 AM 50.9 °F - 49.1 °F 94% 30.18 in 5.0 mi ESE 5.8 mph - N/A   Overcast
8:35 AM 51.8 °F - 49.8 °F 93% 30.18 in 7.0 mi ESE 5.8 mph - N/A   Overcast
8:55 AM 52.5 °F - 50.4 °F 92% 30.18 in 7.0 mi ESE 6.9 mph - N/A   Overcast
9:15 AM 53.6 °F - 51.3 °F 92% 30.18 in 7.0 mi SSE 4.6 mph - N/A   Overcast
9:35 AM 55.0 °F - 52.7 °F 92% 30.18 in 5.0 mi SE 6.9 mph - N/A   Overcast
9:55 AM 55.8 °F - 53.2 °F 91% 30.18 in 5.0 mi ESE 9.2 mph - N/A   Overcast
10:15 AM 56.3 °F - 53.6 °F 91% 30.19 in 5.0 mi ESE 5.8 mph - N/A   Overcast
10:35 AM 56.5 °F - 53.6 °F 90% 30.20 in 5.0 mi ESE 8.1 mph - N/A   Overcast
10:55 AM 57.0 °F - 53.6 °F 88% 30.21 in 5.0 mi SE 5.8 mph - N/A   Overcast
11:15 AM 56.8 °F - 54.0 °F 90% 30.21 in 4.0 mi ESE 9.2 mph - N/A   Overcast
11:35 AM 56.7 °F - 54.0 °F 91% 30.20 in 4.0 mi SE 8.1 mph - N/A   Overcast
11:55 AM 56.8 °F - 54.0 °F 90% 30.19 in 4.0 mi ESE 11.5 mph - N/A   Overcast
12:15 PM 56.1 °F - 53.6 °F 91% 30.19 in 2.0 mi ESE 11.5 mph - N/A   Overcast
12:35 PM 53.2 °F - 51.4 °F 94% 30.18 in 1.0 mi ESE 12.7 mph 20.7 mph N/A   Overcast
12:55 PM 52.2 °F - 50.9 °F 95% 30.15 in 1.0 mi ESE 16.1 mph 20.7 mph N/A   Overcast
1:15 PM 51.1 °F - 49.6 °F 95% 30.15 in 1.5 mi ESE 15.0 mph 23.0 mph N/A   Overcast
1:35 PM 49.6 °F - 47.8 °F 94% 30.15 in 2.0 mi ESE 11.5 mph 19.6 mph N/A   Overcast
1:55 PM 48.6 °F - 47.1 °F 95% 30.15 in 2.0 mi ESE 11.5 mph - N/A   Overcast
2:15 PM 48.4 °F - 46.6 °F 93% 30.14 in 3.0 mi ESE 11.5 mph 17.3 mph N/A   Overcast
2:35 PM 48.0 °F - 46.2 °F 93% 30.14 in 3.0 mi ESE 9.2 mph - N/A   Overcast
2:55 PM 48.2 °F - 45.7 °F 91% 30.14 in 4.0 mi ESE 9.2 mph - N/A   Overcast
3:15 PM 48.0 °F - 45.3 °F 90% 30.14 in 5.0 mi ESE 9.2 mph - N/A   Overcast
3:35 PM 48.2 °F - 45.0 °F 89% 30.14 in 5.0 mi East 8.1 mph - N/A   Overcast
3:55 PM 48.2 °F - 44.8 °F 88% 30.13 in 5.0 mi ESE 12.7 mph 17.3 mph N/A   Overcast
4:15 PM 48.2 °F - 44.4 °F 87% 30.12 in 7.0 mi ESE 11.5 mph 19.6 mph N/A   Overcast
4:35 PM 48.2 °F - 43.7 °F 84% 30.11 in 7.0 mi ESE 11.5 mph - N/A   Overcast
5:15 PM 47.7 °F - 42.8 °F 83% 30.11 in 7.0 mi ESE 13.8 mph 17.3 mph N/A   Overcast
5:35 PM 47.3 °F - 42.3 °F 83% 30.11 in 7.0 mi ESE 10.4 mph 19.6 mph N/A   Overcast
5:55 PM 46.6 °F - 41.9 °F 84% 30.11 in 7.0 mi ESE 11.5 mph 19.6 mph N/A   Overcast
6:15 PM 46.6 °F - 41.4 °F 82% 30.12 in 10.0 mi ESE 12.7 mph 18.4 mph N/A   Overcast
6:35 PM 46.4 °F 40.7 °F 40.8 °F 81% 30.13 in 10.0 mi ESE 12.7 mph - N/A   Overcast
6:55 PM 46.0 °F 39.9 °F 40.1 °F 80% 30.12 in 10.0 mi ESE 13.8 mph 20.7 mph N/A   Overcast
7:15 PM 45.9 °F 39.7 °F 40.1 °F 80% 30.12 in 10.0 mi ESE 13.8 mph - N/A   Overcast
7:35 PM 45.5 °F 39.9 °F 40.1 °F 81% 30.13 in 10.0 mi ESE 11.5 mph 18.4 mph N/A   Overcast
7:55 PM 45.3 °F 40.1 °F 39.6 °F 80% 30.13 in 10.0 mi ESE 10.4 mph 17.3 mph N/A   Overcast
8:15 PM 45.0 °F 38.5 °F 39.2 °F 80% 30.12 in 10.0 mi ESE 13.8 mph 17.3 mph N/A   Overcast
8:35 PM 44.8 °F 38.3 °F 39.2 °F 81% 30.11 in 10.0 mi ESE 13.8 mph 17.3 mph N/A   Overcast
8:55 PM 44.6 °F 38.1 °F 38.1 °F 78% 30.11 in 10.0 mi ESE 13.8 mph 19.6 mph N/A   Overcast
9:15 PM 44.2 °F 38.8 °F 37.8 °F 78% 30.11 in 10.0 mi ESE 10.4 mph 18.4 mph N/A   Overcast
9:35 PM 44.1 °F 39.0 °F 37.9 °F 79% 30.12 in 10.0 mi ESE 9.2 mph - N/A   Overcast
9:55 PM 44.1 °F 40.8 °F 37.6 °F 78% 30.13 in 10.0 mi East 5.8 mph - N/A   Overcast
10:15 PM 43.7 °F 38.1 °F 37.0 °F 77% 30.12 in 10.0 mi ESE 10.4 mph - N/A   Overcast
10:35 PM 43.3 °F 36.5 °F 36.7 °F 77% 30.11 in 10.0 mi East 13.8 mph - N/A   Overcast
10:55 PM 43.0 °F 37.2 °F 36.1 °F 77% 30.11 in 10.0 mi East 10.4 mph - N/A   Overcast
11:15 PM 42.8 °F 37.5 °F 35.2 °F 75% 30.11 in 10.0 mi East 9.2 mph - N/A   Overcast
11:35 PM 42.3 °F 36.3 °F 35.1 °F 76% 30.10 in 10.0 mi East 10.4 mph - N/A   Overcast
11:55 PM 41.9 °F 35.0 °F 35.2 °F 77% 30.09 in 10.0 mi ESE 12.7 mph - N/A   Overcast